Year,Month,Day,Hour,Minute,Value (Times are PST for barometer in hPa)
2008,01,04,00,00,994.85
2008,01,04,00,01,994.82
2008,01,04,00,02,994.81
2008,01,04,00,03,994.75
2008,01,04,00,04,994.72
2008,01,04,00,05,994.65
2008,01,04,00,06,994.65
2008,01,04,00,07,994.58
2008,01,04,00,08,994.54
2008,01,04,00,09,994.48
2008,01,04,00,10,994.48
2008,01,04,00,11,994.48
2008,01,04,00,12,994.52
2008,01,04,00,13,994.51
2008,01,04,00,14,994.45
2008,01,04,00,15,994.48
2008,01,04,00,16,994.45
2008,01,04,00,17,994.45
2008,01,04,00,18,994.41
2008,01,04,00,19,994.35
2008,01,04,00,20,994.31
2008,01,04,00,21,994.28
2008,01,04,00,22,994.28
2008,01,04,00,23,994.35
2008,01,04,00,24,994.31
2008,01,04,00,25,994.35
2008,01,04,00,26,994.35
2008,01,04,00,27,994.38
2008,01,04,00,28,994.38
2008,01,04,00,29,994.35
2008,01,04,00,30,994.38
2008,01,04,00,31,994.35
2008,01,04,00,32,994.35
2008,01,04,00,33,994.27
2008,01,04,00,34,994.21
2008,01,04,00,35,994.21
2008,01,04,00,36,994.23
2008,01,04,00,37,994.18
2008,01,04,00,38,994.14
2008,01,04,00,39,994.14
2008,01,04,00,40,994.10
2008,01,04,00,41,994.04
2008,01,04,00,42,994.04
2008,01,04,00,43,994.04
2008,01,04,00,44,994.01
2008,01,04,00,45,993.97
2008,01,04,00,46,993.94
2008,01,04,00,47,993.93
2008,01,04,00,48,993.87
2008,01,04,00,49,993.84
2008,01,04,00,50,993.84
2008,01,04,00,51,993.84
2008,01,04,00,52,993.80
2008,01,04,00,53,993.77
2008,01,04,00,54,993.74
2008,01,04,00,55,993.70
2008,01,04,00,56,993.67
2008,01,04,00,57,993.67
2008,01,04,00,58,993.67
2008,01,04,00,59,993.63
2008,01,04,01,00,993.67
2008,01,04,01,01,993.60
2008,01,04,01,02,993.63
2008,01,04,01,03,993.63
2008,01,04,01,04,993.60
2008,01,04,01,05,993.59
2008,01,04,01,06,993.53
2008,01,04,01,07,993.50
2008,01,04,01,08,993.47
2008,01,04,01,09,993.50
2008,01,04,01,10,993.46
2008,01,04,01,11,993.39
2008,01,04,01,12,993.34
2008,01,04,01,13,993.40
2008,01,04,01,14,993.40
2008,01,04,01,15,993.43
2008,01,04,01,16,993.47
2008,01,04,01,17,993.49
2008,01,04,01,18,993.40
2008,01,04,01,19,993.40
2008,01,04,01,20,993.40
2008,01,04,01,21,993.39
2008,01,04,01,22,993.33
2008,01,04,01,23,993.36
2008,01,04,01,24,993.36
2008,01,04,01,25,993.36
2008,01,04,01,26,993.33
2008,01,04,01,27,993.29
2008,01,04,01,28,993.23
2008,01,04,01,29,993.18
2008,01,04,01,30,993.13
2008,01,04,01,31,993.13
2008,01,04,01,32,993.05
2008,01,04,01,33,992.98
2008,01,04,01,34,992.91
2008,01,04,01,35,992.82
2008,01,04,01,36,992.82
2008,01,04,01,37,992.86
2008,01,04,01,38,992.89
2008,01,04,01,39,992.92
2008,01,04,01,40,992.96
2008,01,04,01,41,992.96
2008,01,04,01,42,992.96
2008,01,04,01,43,992.92
2008,01,04,01,44,992.91
2008,01,04,01,45,992.86
2008,01,04,01,46,992.82
2008,01,04,01,47,992.81
2008,01,04,01,48,992.72
2008,01,04,01,49,992.68
2008,01,04,01,50,992.58
2008,01,04,01,51,992.55
2008,01,04,01,52,992.58
2008,01,04,01,53,992.55
2008,01,04,01,54,992.55
2008,01,04,01,55,992.55
2008,01,04,01,56,992.55
2008,01,04,01,57,992.58
2008,01,04,01,58,992.62
2008,01,04,01,59,992.62
2008,01,04,02,00,992.62
2008,01,04,02,01,992.58
2008,01,04,02,02,992.62
2008,01,04,02,03,992.58
2008,01,04,02,04,992.58
2008,01,04,02,05,992.55
2008,01,04,02,06,992.58
2008,01,04,02,07,992.58
2008,01,04,02,08,992.56
2008,01,04,02,09,992.62
2008,01,04,02,10,992.62
2008,01,04,02,11,992.58
2008,01,04,02,12,992.55
2008,01,04,02,13,992.48
2008,01,04,02,14,992.48
2008,01,04,02,15,992.48
2008,01,04,02,16,992.45
2008,01,04,02,17,992.45
2008,01,04,02,18,992.42
2008,01,04,02,19,992.42
2008,01,04,02,20,992.35
2008,01,04,02,21,992.42
2008,01,04,02,22,992.35
2008,01,04,02,23,992.37
2008,01,04,02,24,992.30
2008,01,04,02,25,992.25
2008,01,04,02,26,992.25
2008,01,04,02,27,992.21
2008,01,04,02,28,992.19
2008,01,04,02,29,992.25
2008,01,04,02,30,992.25
2008,01,04,02,31,992.21
2008,01,04,02,32,992.18
2008,01,04,02,33,992.14
2008,01,04,02,34,992.14
2008,01,04,02,35,992.14
2008,01,04,02,36,992.14
2008,01,04,02,37,992.14
2008,01,04,02,38,992.11
2008,01,04,02,39,992.08
2008,01,04,02,40,992.04
2008,01,04,02,41,992.01
2008,01,04,02,42,991.97
2008,01,04,02,43,991.86
2008,01,04,02,44,991.77
2008,01,04,02,45,991.73
2008,01,04,02,46,991.63
2008,01,04,02,47,991.52
2008,01,04,02,48,991.47
2008,01,04,02,49,991.37
2008,01,04,02,50,991.40
2008,01,04,02,51,991.36
2008,01,04,02,52,991.29
2008,01,04,02,53,991.22
2008,01,04,02,54,991.12
2008,01,04,02,55,991.06
2008,01,04,02,56,991.02
2008,01,04,02,57,990.95
2008,01,04,02,58,990.88
2008,01,04,02,59,990.82
2008,01,04,03,00,990.78
2008,01,04,03,01,990.65
2008,01,04,03,02,990.58
2008,01,04,03,03,990.52
2008,01,04,03,04,990.49
2008,01,04,03,05,990.45
2008,01,04,03,06,990.45
2008,01,04,03,07,990.38
2008,01,04,03,08,990.35
2008,01,04,03,09,990.32
2008,01,04,03,10,990.32
2008,01,04,03,11,990.32
2008,01,04,03,12,990.25
2008,01,04,03,13,990.18
2008,01,04,03,14,990.15
2008,01,04,03,15,990.15
2008,01,04,03,16,990.11
2008,01,04,03,17,990.08
2008,01,04,03,18,990.08
2008,01,04,03,19,990.04
2008,01,04,03,20,989.98
2008,01,04,03,21,989.94
2008,01,04,03,22,989.91
2008,01,04,03,23,989.91
2008,01,04,03,24,989.85
2008,01,04,03,25,989.91
2008,01,04,03,26,989.84
2008,01,04,03,27,989.80
2008,01,04,03,28,989.74
2008,01,04,03,29,989.74
2008,01,04,03,30,989.71
2008,01,04,03,31,989.71
2008,01,04,03,32,989.74
2008,01,04,03,33,989.71
2008,01,04,03,34,989.71
2008,01,04,03,35,989.67
2008,01,04,03,36,989.64
2008,01,04,03,37,989.59
2008,01,04,03,38,989.54
2008,01,04,03,39,989.53
2008,01,04,03,40,989.47
2008,01,04,03,41,989.50
2008,01,04,03,42,989.47
2008,01,04,03,43,989.47
2008,01,04,03,44,989.44
2008,01,04,03,45,989.43
2008,01,04,03,46,989.33
2008,01,04,03,47,989.30
2008,01,04,03,48,989.29
2008,01,04,03,49,989.20
2008,01,04,03,50,989.19
2008,01,04,03,51,989.13
2008,01,04,03,52,989.05
2008,01,04,03,53,989.00
2008,01,04,03,54,988.96
2008,01,04,03,55,988.96
2008,01,04,03,56,988.93
2008,01,04,03,57,988.93
2008,01,04,03,58,988.86
2008,01,04,03,59,988.89
2008,01,04,04,00,988.79
2008,01,04,04,01,988.72
2008,01,04,04,02,988.69
2008,01,04,04,03,988.66
2008,01,04,04,04,988.62
2008,01,04,04,05,988.61
2008,01,04,04,06,988.59
2008,01,04,04,07,988.54
2008,01,04,04,08,988.49
2008,01,04,04,09,988.45
2008,01,04,04,10,988.42
2008,01,04,04,17,988.11
2008,01,04,04,26,987.90
2008,01,04,04,41,987.25
2008,01,04,04,59,986.45
2008,01,04,05,15,985.71
2008,01,04,05,33,984.89
2008,01,04,05,48,984.15
2008,01,04,05,49,984.11
2008,01,04,05,50,984.02
2008,01,04,05,51,984.02
2008,01,04,05,52,983.98
2008,01,04,05,53,983.92
2008,01,04,05,54,983.91
2008,01,04,05,55,983.85
2008,01,04,05,56,983.78
2008,01,04,05,57,983.74
2008,01,04,05,58,983.64
2008,01,04,05,59,983.63
2008,01,04,06,00,983.54
2008,01,04,06,01,983.61
2008,01,04,06,02,983.61
2008,01,04,06,03,983.58
2008,01,04,06,04,983.54
2008,01,04,06,05,983.58
2008,01,04,06,06,983.53
2008,01,04,06,07,983.44
2008,01,04,06,08,983.41
2008,01,04,06,09,983.41
2008,01,04,06,10,983.36
2008,01,04,06,11,983.23
2008,01,04,06,12,983.16
2008,01,04,06,13,983.07
2008,01,04,06,14,983.10
2008,01,04,06,15,983.09
2008,01,04,06,16,983.04
2008,01,04,06,17,983.04
2008,01,04,06,18,983.07
2008,01,04,06,19,983.03
2008,01,04,06,20,983.00
2008,01,04,06,21,982.97
2008,01,04,06,22,982.97
2008,01,04,06,23,982.93
2008,01,04,06,24,982.87
2008,01,04,06,25,982.79
2008,01,04,06,26,982.73
2008,01,04,06,27,982.70
2008,01,04,06,28,982.66
2008,01,04,06,29,982.62
2008,01,04,06,30,982.56
2008,01,04,06,31,982.53
2008,01,04,06,32,982.53
2008,01,04,06,33,982.46
2008,01,04,06,34,982.42
2008,01,04,06,35,982.30
2008,01,04,06,36,982.15
2008,01,04,06,37,982.15
2008,01,04,06,38,982.12
2008,01,04,06,39,982.04
2008,01,04,06,40,981.94
2008,01,04,06,41,981.85
2008,01,04,06,42,981.81
2008,01,04,06,43,981.75
2008,01,04,06,44,981.75
2008,01,04,06,45,981.71
2008,01,04,06,46,981.60
2008,01,04,06,47,981.55
2008,01,04,06,48,981.51
2008,01,04,06,49,981.47
2008,01,04,06,50,981.41
2008,01,04,06,51,981.33
2008,01,04,06,52,981.21
2008,01,04,06,53,981.16
2008,01,04,06,54,980.97
2008,01,04,06,55,980.97
2008,01,04,06,56,980.90
2008,01,04,06,57,980.94
2008,01,04,06,58,980.87
2008,01,04,06,59,980.87
2008,01,04,07,00,980.83
2008,01,04,07,01,980.80
2008,01,04,07,02,980.77
2008,01,04,07,03,980.73
2008,01,04,07,04,980.80
2008,01,04,07,05,980.77
2008,01,04,07,06,980.76
2008,01,04,07,07,980.66
2008,01,04,07,08,980.63
2008,01,04,07,09,980.60
2008,01,04,07,10,980.53
2008,01,04,07,11,980.53
2008,01,04,07,12,980.53
2008,01,04,07,13,980.55
2008,01,04,07,14,980.46
2008,01,04,07,15,980.39
2008,01,04,07,16,980.29
2008,01,04,07,17,980.29
2008,01,04,07,18,980.22
2008,01,04,07,19,980.16
2008,01,04,07,20,980.16
2008,01,04,07,21,980.12
2008,01,04,07,22,980.06
2008,01,04,07,23,980.02
2008,01,04,07,24,979.95
2008,01,04,07,25,979.91
2008,01,04,07,26,979.78
2008,01,04,07,27,979.78
2008,01,04,07,28,979.72
2008,01,04,07,29,979.68
2008,01,04,07,30,979.68
2008,01,04,07,31,979.60
2008,01,04,07,32,979.51
2008,01,04,07,33,979.51
2008,01,04,07,34,979.45
2008,01,04,07,35,979.38
2008,01,04,07,36,979.34
2008,01,04,07,37,979.30
2008,01,04,07,38,979.21
2008,01,04,07,39,979.17
2008,01,04,07,40,979.17
2008,01,04,07,41,979.11
2008,01,04,07,42,979.07
2008,01,04,07,43,979.03
2008,01,04,07,44,978.94
2008,01,04,07,45,978.94
2008,01,04,07,46,978.90
2008,01,04,07,47,978.90
2008,01,04,07,48,978.90
2008,01,04,07,49,978.84
2008,01,04,07,50,978.84
2008,01,04,07,51,978.77
2008,01,04,07,52,978.80
2008,01,04,07,53,978.79
2008,01,04,07,54,978.70
2008,01,04,07,55,978.70
2008,01,04,07,56,978.70
2008,01,04,07,57,978.63
2008,01,04,07,58,978.67
2008,01,04,07,59,978.60
2008,01,04,08,00,978.60
2008,01,04,08,01,978.53
2008,01,04,08,02,978.57
2008,01,04,08,03,978.53
2008,01,04,08,04,978.57
2008,01,04,08,05,978.57
2008,01,04,08,06,978.52
2008,01,04,08,07,978.43
2008,01,04,08,08,978.43
2008,01,04,08,09,978.43
2008,01,04,08,10,978.40
2008,01,04,08,11,978.42
2008,01,04,08,12,978.33
2008,01,04,08,13,978.33
2008,01,04,08,14,978.33
2008,01,04,08,15,978.29
2008,01,04,08,16,978.26
2008,01,04,08,17,978.26
2008,01,04,08,18,978.29
2008,01,04,08,19,978.23
2008,01,04,08,20,978.23
2008,01,04,08,21,978.19
2008,01,04,08,22,978.19
2008,01,04,08,23,978.16
2008,01,04,08,24,978.16
2008,01,04,08,25,978.12
2008,01,04,08,26,978.11
2008,01,04,08,27,978.02
2008,01,04,08,28,978.06
2008,01,04,08,29,978.02
2008,01,04,08,30,978.02
2008,01,04,08,31,977.96
2008,01,04,08,32,977.92
2008,01,04,08,33,977.89
2008,01,04,08,34,977.82
2008,01,04,08,35,977.79
2008,01,04,08,36,977.79
2008,01,04,08,37,977.71
2008,01,04,08,38,977.65
2008,01,04,08,39,977.55
2008,01,04,08,40,977.55
2008,01,04,08,41,977.52
2008,01,04,08,42,977.48
2008,01,04,08,43,977.45
2008,01,04,08,44,977.47
2008,01,04,08,45,977.35
2008,01,04,08,46,977.38
2008,01,04,08,47,977.35
2008,01,04,08,48,977.35
2008,01,04,08,49,977.35
2008,01,04,08,50,977.31
2008,01,04,08,51,977.31
2008,01,04,08,52,977.35
2008,01,04,08,53,977.35
2008,01,04,08,54,977.31
2008,01,04,08,55,977.28
2008,01,04,08,56,977.28
2008,01,04,08,57,977.24
2008,01,04,08,58,977.24
2008,01,04,08,59,977.24
2008,01,04,09,00,977.24
2008,01,04,09,01,977.24
2008,01,04,09,02,977.23
2008,01,04,09,03,977.14
2008,01,04,09,04,977.21
2008,01,04,09,05,977.18
2008,01,04,09,06,977.14
2008,01,04,09,07,977.11
2008,01,04,09,08,977.11
2008,01,04,09,09,977.08
2008,01,04,09,10,977.04
2008,01,04,09,11,977.04
2008,01,04,09,12,977.08
2008,01,04,09,13,976.97
2008,01,04,09,14,976.95
2008,01,04,09,15,977.03
2008,01,04,09,16,976.94
2008,01,04,09,17,977.01
2008,01,04,09,18,977.03
2008,01,04,09,19,976.94
2008,01,04,09,20,976.87
2008,01,04,09,21,976.87
2008,01,04,09,22,976.87
2008,01,04,09,23,976.87
2008,01,04,09,24,976.91
2008,01,04,09,25,976.91
2008,01,04,09,26,976.87
2008,01,04,09,27,976.94
2008,01,04,09,28,976.94
2008,01,04,09,29,976.91
2008,01,04,09,30,976.91
2008,01,04,09,31,976.87
2008,01,04,09,32,976.84
2008,01,04,09,33,976.74
2008,01,04,09,34,976.74
2008,01,04,09,35,976.74
2008,01,04,09,36,976.70
2008,01,04,09,37,976.70
2008,01,04,09,38,976.63
2008,01,04,09,39,976.70
2008,01,04,09,40,976.63
2008,01,04,09,41,976.63
2008,01,04,09,42,976.57
2008,01,04,09,43,976.53
2008,01,04,09,44,976.47
2008,01,04,09,45,976.43
2008,01,04,09,46,976.35
2008,01,04,09,47,976.23
2008,01,04,09,48,976.16
2008,01,04,09,49,976.09
2008,01,04,09,50,976.03
2008,01,04,09,51,975.96
2008,01,04,09,52,975.99
2008,01,04,09,53,975.89
2008,01,04,09,54,975.92
2008,01,04,09,55,975.92
2008,01,04,09,56,975.92
2008,01,04,09,57,975.89
2008,01,04,09,58,975.91
2008,01,04,09,59,975.82
2008,01,04,10,00,975.82
2008,01,04,10,01,975.85
2008,01,04,10,02,975.75
2008,01,04,10,03,975.72
2008,01,04,10,04,975.65
2008,01,04,10,05,975.59
2008,01,04,10,06,975.58
2008,01,04,10,07,975.45
2008,01,04,10,08,975.35
2008,01,04,10,09,975.42
2008,01,04,10,10,975.42
2008,01,04,10,11,975.42
2008,01,04,10,12,975.42
2008,01,04,10,13,975.42
2008,01,04,10,14,975.38
2008,01,04,10,15,975.31
2008,01,04,10,16,975.28
2008,01,04,10,17,975.18
2008,01,04,10,18,975.07
2008,01,04,10,19,974.94
2008,01,04,10,20,974.91
2008,01,04,10,21,974.91
2008,01,04,10,22,974.91
2008,01,04,10,23,974.87
2008,01,04,10,24,974.91
2008,01,04,10,25,974.84
2008,01,04,10,26,974.87
2008,01,04,10,27,974.87
2008,01,04,10,28,974.87
2008,01,04,10,29,974.91
2008,01,04,10,30,974.94
2008,01,04,10,31,975.01
2008,01,04,10,32,974.98
2008,01,04,10,33,974.98
2008,01,04,10,34,974.94
2008,01,04,10,35,974.94
2008,01,04,10,36,974.94
2008,01,04,10,37,974.91
2008,01,04,10,38,974.91
2008,01,04,10,39,974.87
2008,01,04,10,40,974.94
2008,01,04,10,41,974.87
2008,01,04,10,42,974.87
2008,01,04,10,43,974.84
2008,01,04,10,44,974.80
2008,01,04,10,45,974.69
2008,01,04,10,46,974.57
2008,01,04,10,47,974.57
2008,01,04,10,48,974.57
2008,01,04,10,49,974.46
2008,01,04,10,50,974.33
2008,01,04,10,51,974.33
2008,01,04,10,52,974.37
2008,01,04,10,53,974.37
2008,01,04,10,54,974.54
2008,01,04,10,55,974.57
2008,01,04,10,56,974.50
2008,01,04,10,57,974.42
2008,01,04,10,58,974.33
2008,01,04,10,59,974.33
2008,01,04,11,00,974.37
2008,01,04,11,01,974.30
2008,01,04,11,02,974.30
2008,01,04,11,03,974.30
2008,01,04,11,04,974.40
2008,01,04,11,05,974.47
2008,01,04,11,06,974.43
2008,01,04,11,07,974.46
2008,01,04,11,08,974.33
2008,01,04,11,09,974.37
2008,01,04,11,10,974.32
2008,01,04,11,11,974.16
2008,01,04,11,12,974.13
2008,01,04,11,13,974.03
2008,01,04,11,14,974.03
2008,01,04,11,15,973.99
2008,01,04,11,16,973.99
2008,01,04,11,17,973.99
2008,01,04,11,18,974.02
2008,01,04,11,19,973.89
2008,01,04,11,20,973.89
2008,01,04,11,21,973.96
2008,01,04,11,22,973.99
2008,01,04,11,23,974.03
2008,01,04,11,24,973.96
2008,01,04,11,25,973.88
2008,01,04,11,26,973.72
2008,01,04,11,27,973.76
2008,01,04,11,28,973.72
2008,01,04,11,29,973.77
2008,01,04,11,30,973.86
2008,01,04,11,31,973.82
2008,01,04,11,32,973.76
2008,01,04,11,33,973.79
2008,01,04,11,34,973.82
2008,01,04,11,35,973.79
2008,01,04,11,36,973.76
2008,01,04,11,37,973.76
2008,01,04,11,38,973.76
2008,01,04,11,39,973.79
2008,01,04,11,40,973.72
2008,01,04,11,41,973.69
2008,01,04,11,42,973.72
2008,01,04,11,43,973.76
2008,01,04,11,44,973.72
2008,01,04,11,45,973.72
2008,01,04,11,46,973.72
2008,01,04,11,47,973.65
2008,01,04,11,48,973.62
2008,01,04,11,49,973.65
2008,01,04,11,50,973.65
2008,01,04,11,51,973.65
2008,01,04,11,52,973.69
2008,01,04,11,53,973.72
2008,01,04,11,54,973.72
2008,01,04,11,55,973.66
2008,01,04,11,56,973.76
2008,01,04,11,57,973.72
2008,01,04,11,58,973.72
2008,01,04,11,59,973.76
2008,01,04,12,00,973.76
2008,01,04,12,01,973.72
2008,01,04,12,02,973.65
2008,01,04,12,03,973.69
2008,01,04,12,04,973.62
2008,01,04,12,05,973.72
2008,01,04,12,06,973.69
2008,01,04,12,07,973.72
2008,01,04,12,08,973.65
2008,01,04,12,09,973.65
2008,01,04,12,10,973.65
2008,01,04,12,11,973.65
2008,01,04,12,12,973.65
2008,01,04,12,13,973.65
2008,01,04,12,14,973.65
2008,01,04,12,15,973.62
2008,01,04,12,16,973.69
2008,01,04,12,17,973.72
2008,01,04,12,18,973.72
2008,01,04,12,19,973.76
2008,01,04,12,20,973.79
2008,01,04,12,21,973.69
2008,01,04,12,22,973.76
2008,01,04,12,23,973.72
2008,01,04,12,24,973.66
2008,01,04,12,25,973.76
2008,01,04,12,26,973.79
2008,01,04,12,27,973.79
2008,01,04,12,28,973.79
2008,01,04,12,29,973.69
2008,01,04,12,30,973.62
2008,01,04,12,31,973.65
2008,01,04,12,32,973.62
2008,01,04,12,33,973.62
2008,01,04,12,34,973.59
2008,01,04,12,35,973.49
2008,01,04,12,36,973.52
2008,01,04,12,37,973.38
2008,01,04,12,38,973.45
2008,01,04,12,39,973.35
2008,01,04,12,40,973.42
2008,01,04,12,41,973.42
2008,01,04,12,42,973.35
2008,01,04,12,43,973.38
2008,01,04,12,44,973.48
2008,01,04,12,45,973.35
2008,01,04,12,46,973.42
2008,01,04,12,47,973.32
2008,01,04,12,48,973.28
2008,01,04,12,49,973.35
2008,01,04,12,50,973.35
2008,01,04,12,51,973.42
2008,01,04,12,52,973.42
2008,01,04,12,53,973.45
2008,01,04,12,54,973.42
2008,01,04,12,55,973.49
2008,01,04,12,56,973.52
2008,01,04,12,57,973.49
2008,01,04,12,58,973.52
2008,01,04,12,59,973.59
2008,01,04,13,00,973.52
2008,01,04,13,01,973.62
2008,01,04,13,02,973.59
2008,01,04,13,03,973.62
2008,01,04,13,04,973.65
2008,01,04,13,05,973.63
2008,01,04,13,06,973.78
2008,01,04,13,07,973.62
2008,01,04,13,08,973.72
2008,01,04,13,09,973.69
2008,01,04,13,10,973.72
2008,01,04,13,11,973.62
2008,01,04,13,12,973.72
2008,01,04,13,13,973.65
2008,01,04,13,14,973.62
2008,01,04,13,15,973.59
2008,01,04,13,16,973.52
2008,01,04,13,17,973.55
2008,01,04,13,18,973.58
2008,01,04,13,19,973.38
2008,01,04,13,20,973.35
2008,01,04,13,21,973.41
2008,01,04,13,22,973.28
2008,01,04,13,23,973.35
2008,01,04,13,24,973.52
2008,01,04,13,25,973.52
2008,01,04,13,26,973.49
2008,01,04,13,27,973.35
2008,01,04,13,28,973.52
2008,01,04,13,29,973.49
2008,01,04,13,30,973.58
2008,01,04,13,31,973.40
2008,01,04,13,32,973.11
2008,01,04,13,33,973.05
2008,01,04,13,34,973.15
2008,01,04,13,35,973.32
2008,01,04,13,36,973.28
2008,01,04,13,37,973.25
2008,01,04,13,38,973.18
2008,01,04,13,39,973.18
2008,01,04,13,40,973.15
2008,01,04,13,41,973.18
2008,01,04,13,42,973.21
2008,01,04,13,43,973.15
2008,01,04,13,44,973.18
2008,01,04,13,45,973.18
2008,01,04,13,46,973.15
2008,01,04,13,47,973.15
2008,01,04,13,48,973.11
2008,01,04,13,49,973.15
2008,01,04,13,50,973.08
2008,01,04,13,51,973.05
2008,01,04,13,52,973.10
2008,01,04,13,53,973.01
2008,01,04,13,54,973.08
2008,01,04,13,55,973.15
2008,01,04,13,56,973.11
2008,01,04,13,57,973.08
2008,01,04,13,58,973.05
2008,01,04,13,59,972.98
2008,01,04,14,00,972.94
2008,01,04,14,01,972.94
2008,01,04,14,02,972.98
2008,01,04,14,03,973.01
2008,01,04,14,04,973.01
2008,01,04,14,05,973.05
2008,01,04,14,06,973.01
2008,01,04,14,07,973.01
2008,01,04,14,08,973.08
2008,01,04,14,09,973.08
2008,01,04,14,10,973.08
2008,01,04,14,11,973.08
2008,01,04,14,12,973.08
2008,01,04,14,13,973.05
2008,01,04,14,14,973.01
2008,01,04,14,15,972.98
2008,01,04,14,16,972.98
2008,01,04,14,17,973.01
2008,01,04,14,18,973.05
2008,01,04,14,19,973.01
2008,01,04,14,20,972.98
2008,01,04,14,21,972.94
2008,01,04,14,22,972.88
2008,01,04,14,23,972.81
2008,01,04,14,24,972.77
2008,01,04,14,25,972.77
2008,01,04,14,26,972.74
2008,01,04,14,27,972.81
2008,01,04,14,28,972.81
2008,01,04,14,29,972.84
2008,01,04,14,30,972.88
2008,01,04,14,31,972.91
2008,01,04,14,32,972.98
2008,01,04,14,33,973.11
2008,01,04,14,34,973.15
2008,01,04,14,35,973.21
2008,01,04,14,36,973.18
2008,01,04,14,37,973.18
2008,01,04,14,38,973.11
2008,01,04,14,39,973.15
2008,01,04,14,40,973.15
2008,01,04,14,41,973.18
2008,01,04,14,42,973.18
2008,01,04,14,43,973.25
2008,01,04,14,44,973.21
2008,01,04,14,45,973.15
2008,01,04,14,46,973.15
2008,01,04,14,47,973.08
2008,01,04,14,48,973.11
2008,01,04,14,49,973.15
2008,01,04,14,50,973.15
2008,01,04,14,51,973.18
2008,01,04,14,52,973.18
2008,01,04,14,53,973.15
2008,01,04,14,54,973.15
2008,01,04,14,55,973.08
2008,01,04,14,56,973.01
2008,01,04,14,57,973.08
2008,01,04,14,58,973.05
2008,01,04,14,59,973.11
2008,01,04,15,00,973.11
2008,01,04,15,01,973.11
2008,01,04,15,02,973.15
2008,01,04,15,03,973.18
2008,01,04,15,04,973.21
2008,01,04,15,05,973.25
2008,01,04,15,06,973.25
2008,01,04,15,07,973.28
2008,01,04,15,08,973.21
2008,01,04,15,09,973.25
2008,01,04,15,10,973.25
2008,01,04,15,11,973.28
2008,01,04,15,12,973.25
2008,01,04,15,13,973.25
2008,01,04,15,14,973.21
2008,01,04,15,15,973.11
2008,01,04,15,16,973.15
2008,01,04,15,17,973.11
2008,01,04,15,18,973.15
2008,01,04,15,19,973.11
2008,01,04,15,20,973.15
2008,01,04,15,21,973.18
2008,01,04,15,22,973.15
2008,01,04,15,23,973.08
2008,01,04,15,24,973.05
2008,01,04,15,25,973.05
2008,01,04,15,26,972.94
2008,01,04,15,27,972.98
2008,01,04,15,28,972.98
2008,01,04,15,29,972.94
2008,01,04,15,30,972.91
2008,01,04,15,31,972.88
2008,01,04,15,32,972.84
2008,01,04,15,33,972.74
2008,01,04,15,34,972.74
2008,01,04,15,35,972.74
2008,01,04,15,36,972.77
2008,01,04,15,37,972.77
2008,01,04,15,38,972.88
2008,01,04,15,39,972.84
2008,01,04,15,40,972.89
2008,01,04,15,41,972.98
2008,01,04,15,42,972.98
2008,01,04,15,43,972.98
2008,01,04,15,44,973.01
2008,01,04,15,45,972.98
2008,01,04,15,46,972.98
2008,01,04,15,47,972.94
2008,01,04,15,48,972.94
2008,01,04,15,49,972.98
2008,01,04,15,50,972.94
2008,01,04,15,51,972.94
2008,01,04,15,52,972.94
2008,01,04,15,53,972.97
2008,01,04,15,54,972.88
2008,01,04,15,55,972.88
2008,01,04,15,56,972.88
2008,01,04,15,57,972.88
2008,01,04,15,58,972.88
2008,01,04,15,59,972.88
2008,01,04,16,00,972.81
2008,01,04,16,01,972.81
2008,01,04,16,02,972.77
2008,01,04,16,03,972.71
2008,01,04,16,04,972.61
2008,01,04,16,05,972.57
2008,01,04,16,06,972.47
2008,01,04,16,07,972.44
2008,01,04,16,08,972.40
2008,01,04,16,09,972.30
2008,01,04,16,10,972.30
2008,01,04,16,11,972.27
2008,01,04,16,12,972.27
2008,01,04,16,13,972.16
2008,01,04,16,14,972.10
2008,01,04,16,15,972.10
2008,01,04,16,16,972.06
2008,01,04,16,17,972.06
2008,01,04,16,18,972.06
2008,01,04,16,19,972.03
2008,01,04,16,20,972.00
2008,01,04,16,21,972.00
2008,01,04,16,22,971.96
2008,01,04,16,23,971.86
2008,01,04,16,24,971.93
2008,01,04,16,25,971.89
2008,01,04,16,26,971.89
2008,01,04,16,27,971.93
2008,01,04,16,28,971.83
2008,01,04,16,29,971.86
2008,01,04,16,30,971.86
2008,01,04,16,31,971.79
2008,01,04,16,32,971.83
2008,01,04,16,33,971.78
2008,01,04,16,34,971.69
2008,01,04,16,35,971.66
2008,01,04,16,36,971.62
2008,01,04,16,37,971.62
2008,01,04,16,38,971.62
2008,01,04,16,39,971.66
2008,01,04,16,40,971.66
2008,01,04,16,41,971.62
2008,01,04,16,42,971.56
2008,01,04,16,43,971.55
2008,01,04,16,44,971.45
2008,01,04,16,45,971.39
2008,01,04,16,46,971.52
2008,01,04,16,47,971.42
2008,01,04,16,48,971.39
2008,01,04,16,49,971.42
2008,01,04,16,50,971.28
2008,01,04,16,51,971.35
2008,01,04,16,52,971.32
2008,01,04,16,53,971.35
2008,01,04,16,54,971.34
2008,01,04,16,55,971.18
2008,01,04,16,56,971.25
2008,01,04,16,57,971.28
2008,01,04,16,58,971.28
2008,01,04,16,59,971.28
2008,01,04,17,00,971.25
2008,01,04,17,01,971.25
2008,01,04,17,02,971.18
2008,01,04,17,03,971.22
2008,01,04,17,04,971.28
2008,01,04,17,05,971.12
2008,01,04,17,06,971.08
2008,01,04,17,07,971.18
2008,01,04,17,08,971.15
2008,01,04,17,09,971.18
2008,01,04,17,10,971.15
2008,01,04,17,11,971.09
2008,01,04,17,12,971.18
2008,01,04,17,13,971.18
2008,01,04,17,14,971.12
2008,01,04,17,15,971.15
2008,01,04,17,16,971.05
2008,01,04,17,17,971.22
2008,01,04,17,18,971.01
2008,01,04,17,19,971.22
2008,01,04,17,20,971.15
2008,01,04,17,21,971.18
2008,01,04,17,22,971.15
2008,01,04,17,23,971.18
2008,01,04,17,24,971.12
2008,01,04,17,25,971.12
2008,01,04,17,26,971.12
2008,01,04,17,27,971.22
2008,01,04,17,28,971.17
2008,01,04,17,29,971.08
2008,01,04,17,30,971.08
2008,01,04,17,31,971.08
2008,01,04,17,32,971.05
2008,01,04,17,33,971.05
2008,01,04,17,34,971.01
2008,01,04,17,35,970.98
2008,01,04,17,36,970.88
2008,01,04,17,37,970.91
2008,01,04,17,38,970.84
2008,01,04,17,39,970.81
2008,01,04,17,40,970.74
2008,01,04,17,41,970.71
2008,01,04,17,42,970.74
2008,01,04,17,43,970.74
2008,01,04,17,44,970.71
2008,01,04,17,45,970.64
2008,01,04,17,46,970.71
2008,01,04,17,47,970.64
2008,01,04,17,48,970.64
2008,01,04,17,49,970.78
2008,01,04,17,50,970.84
2008,01,04,17,51,970.78
2008,01,04,17,52,970.74
2008,01,04,17,53,970.61
2008,01,04,17,54,970.61
2008,01,04,17,55,970.51
2008,01,04,17,56,970.54
2008,01,04,17,57,970.54
2008,01,04,17,58,970.51
2008,01,04,17,59,970.53
2008,01,04,18,00,970.44
2008,01,04,18,01,970.34
2008,01,04,18,02,970.34
2008,01,04,18,03,970.37
2008,01,04,18,04,970.40
2008,01,04,18,05,970.40
2008,01,04,18,06,970.44
2008,01,04,18,07,970.44